STARLINK-35148, 65844

Orbit data source: Space-Track

STARLINK-35148, 65844 is a payload satellite owned by SpaceX/Seattle (US) in LEO that was launched on Mon, 29 Sep 2025 UTC via an FALCON 9 launch vehicle from the Air Force Western Test Range (AFWTR). Payload-class satellites include a variety of spacecraft equipped with specific instruments for various scientific and technological missions. These include communications satellites like Starlink; space stations such as the ISS; scientific satellites like the Hubble; Earth observation satellites from companies like Planet Labs, Umbra, and HawkEye 360; GPS; miniature CubeSats for education and research; and military/defense satellites.

Loading next visibility...
Identifier
65844, 2025-221X
Orbit
LEO
Country
Flag of USUS
Related business
Manufacturer
SpaceX/Seattle
Mission
Operational spacecraft
Bus & Motor
STARLINK V2MO, Unknown motor
Mass
575 kg wet, ~530 kg dry
Launch date (UTC)
2025-09-29 (3 weeks ago)
Launch vehicle
FALCON 9
Launch site
Air Force Western Test Range (AFWTR)
Object type
Payload
Rocket body
Debris
Shape & HBR
Unknown shape, 17.7 m
Radar Cross Section
RCS unknown

Expand to show TLE details & history
Last TLE update: 5 hours ago

TLE from 5 hours ago
0 STARLINK-35148
1 65844U 25221X   25291.25003472 -.01645581  00000-0 -26535-1 0  9995
2 65844  53.1603  32.5940 0001332  71.7008  91.9956 15.55308304  4278
Epoch: 2025-10-18T06:00Z
TLE epoch observation values (Epoch: 2025-10-18T06:00:02.999Z)
Latitude
12.97236°
Longitude
85.71591°
Altitude
401.437 km
Speed
7.672 km/s
True Right ascension
13h 30m 50s
True Declination
12° 53' 36"
Sunlit
Object was in daylight at epoch
Visualization orbit readout
Latitude
Unknown
Longitude
Unknown
Altitude
Unknown
Speed
Unknown
Apparent Right ascension
Unknown
Apparent Declination
Unknown
Sunlit
N/A
Visualization observer readout
Local Sidereal Time
06:03:04
Azimuth
Unknown
Elevation
Unknown
Doppler factor
Unknown
Orbital elements
Apogee altitude
402.419 km
Perigee altitude
400.613 km
Semi-major axis
6,779.653 km
Eccentricity
0.00013
Inclination
53.1603°
RAAN
32.594°
Arg. of periapsis
71.7008°
True anomaly
92.01085°
Mean anomaly
91.9956°
Eccentric anomaly
92.00323°
Mean motion
3.88805 °/min
Orbital period
92.59 mins
BSTAR
-0.026535
Loading maneuver chart data...
Computing Atmospheric mass density...
Loading historical data...
Loading historical data...
Loading historical data...
Loading historical data...
Loading historical data...
Loading historical data...
Loading historical data...

Documentation

Showing up to 5 results
|